When you browse on this site, cookies collect data to enhance your experience and personalize the content and advertising you see.
Visit our Privacy Policy to learn more. By continuing to use the site, you agree to this use of cookies and data.
  • In Hungary
  • List of Countries
  • For 7 days
  • Water Temperature
  • Weather Map
  • News
  • Weather Widgets
  • user-avatar
    Login

    Hourly Weather Wiezanka

    Today, 8 April, Wednesday

    Time Temperature Precipitation Wind Pressure Humidity
    00:00 +9°C° 0 mm 3 mps 757 mmHg 72%
    01:00 +8°C° 0 mm 3 mps 758 mmHg 77%
    02:00 +7°C° 0 mm 3 mps 757 mmHg 79%
    03:00 +6°C° 0 mm 2 mps 757 mmHg 79%
    04:00 +6°C° 0 mm 2 mps 758 mmHg 80%
    05:00 +5°C° 0 mm 2 mps 758 mmHg 80%
    06:00 +6°C° 0 mm 2 mps 758 mmHg 76%
    07:00 +7°C° 0 mm 2 mps 758 mmHg 72%
    08:00 +8°C° 0 mm 2 mps 759 mmHg 69%
    09:00 +9°C° 0 mm 2 mps 758 mmHg 61%
    10:00 +12°C° 0 mm 2 mps 758 mmHg 54%
    11:00 +14°C° 0 mm 2 mps 758 mmHg 46%
    12:00 +15°C° 0 mm 2 mps 758 mmHg 42%
    13:00 +16°C° 0 mm 2 mps 757 mmHg 38%
    14:00 +17°C° 0 mm 2 mps 757 mmHg 34%
    15:00 +18°C° 0 mm 1 mps 757 mmHg 34%
    16:00 +18°C° 0 mm 1 mps 756 mmHg 33%
    17:00 +18°C° 0 mm 1 mps 756 mmHg 33%
    18:00 +15°C° 0 mm 1 mps 755 mmHg 38%
    19:00 +13°C° 0 mm 1 mps 755 mmHg 43%
    20:00 +11°C° 0 mm 1 mps 755 mmHg 49%
    21:00 +11°C° 0 mm 1 mps 754 mmHg 51%
    22:00 +10°C° 0 mm 1 mps 754 mmHg 53%
    23:00 +9°C° 0 mm 1 mps 754 mmHg 55%

    Tomorrow, 9 April, Thursday

    Time Temperature Precipitation Wind Pressure Humidity
    00:00 +8°C° 0 mm 2 mps 753 mmHg 58%
    01:00 +8°C° 0 mm 2 mps 753 mmHg 60%
    02:00 +7°C° 0 mm 2 mps 753 mmHg 62%
    03:00 +7°C° 0 mm 2 mps 752 mmHg 63%
    04:00 +7°C° 0 mm 2 mps 751 mmHg 63%
    05:00 +5°C° 0 mm 3 mps 751 mmHg 63%
    06:00 +8°C° 0 mm 3 mps 750 mmHg 62%
    07:00 +8°C° 0 mm 4 mps 750 mmHg 61%
    08:00 +10°C° 0 mm 4 mps 749 mmHg 60%
    09:00 +12°C° 0 mm 4 mps 749 mmHg 55%
    10:00 +14°C° 0 mm 5 mps 749 mmHg 51%
    11:00 +16°C° 0 mm 5 mps 748 mmHg 46%
    12:00 +17°C° 0 mm 6 mps 748 mmHg 44%
    13:00 +18°C° 0 mm 7 mps 748 mmHg 41%
    14:00 +18°C° 0 mm 7 mps 747 mmHg 39%
    15:00 +17°C° 0.2 mm 6 mps 747 mmHg 49%
    16:00 +15°C° 0.2 mm 6 mps 747 mmHg 59%
    17:00 +13°C° 0.2 mm 5 mps 747 mmHg 70%
    18:00 +12°C° 0.1 mm 5 mps 747 mmHg 69%
    19:00 +10°C° 0.1 mm 5 mps 747 mmHg 69%
    20:00 +10°C° 0.1 mm 4 mps 747 mmHg 69%
    21:00 +8°C° 0 mm 4 mps 748 mmHg 74%
    22:00 +7°C° 0 mm 4 mps 748 mmHg 79%
    23:00 +6°C° 0 mm 4 mps 749 mmHg 84%

    Day after tomorrow, 10 April, Friday

    Time Temperature Precipitation Wind Pressure Humidity
    00:00 +5°C° 0 mm 4 mps 749 mmHg 84%
    01:00 +4°C° 0 mm 4 mps 749 mmHg 85%
    02:00 +3°C° 0 mm 4 mps 750 mmHg 85%
    03:00 +3°C° 0 mm 4 mps 750 mmHg 86%
    04:00 +1°C° 0 mm 4 mps 751 mmHg 86%
    05:00 +2°C° 0 mm 3 mps 751 mmHg 87%
    06:00 +2°C° 0 mm 3 mps 752 mmHg 80%
    07:00 +3°C° 0 mm 3 mps 752 mmHg 73%
    08:00 +4°C° 0 mm 3 mps 753 mmHg 65%
    09:00 +5°C° 0 mm 4 mps 753 mmHg 57%
    10:00 +6°C° 0 mm 4 mps 753 mmHg 49%
    11:00 +8°C° 0 mm 4 mps 753 mmHg 40%
    12:00 +8°C° 0 mm 4 mps 753 mmHg 39%
    13:00 +9°C° 0 mm 5 mps 753 mmHg 39%
    14:00 +10°C° 0 mm 5 mps 753 mmHg 38%
    15:00 +9°C° 0 mm 5 mps 753 mmHg 39%
    16:00 +9°C° 0 mm 5 mps 753 mmHg 39%
    17:00 +9°C° 0 mm 5 mps 752 mmHg 40%
    18:00 +8°C° 0 mm 4 mps 752 mmHg 45%
    19:00 +8°C° 0 mm 3 mps 752 mmHg 50%
    20:00 +6°C° 0 mm 2 mps 753 mmHg 54%
    21:00 +6°C° 0 mm 2 mps 753 mmHg 57%
    22:00 +5°C° 0 mm 2 mps 753 mmHg 59%
    23:00 +4°C° 0 mm 2 mps 753 mmHg 61%

    11 April, Saturday

    Time Temperature Precipitation Wind Pressure Humidity
    00:00 +5°C° 0 mm 1 mps 753 mmHg 63%
    01:00 +4°C° 0 mm 1 mps 753 mmHg 64%
    02:00 +4°C° 0 mm 1 mps 753 mmHg 66%
    03:00 +3°C° 0 mm 1 mps 753 mmHg 67%
    04:00 +3°C° 0 mm 1 mps 754 mmHg 69%
    05:00 +2°C° 0 mm 1 mps 754 mmHg 70%
    06:00 +3°C° 0 mm 1 mps 754 mmHg 67%
    07:00 +4°C° 0 mm 1 mps 754 mmHg 64%
    08:00 +4°C° 0 mm 2 mps 754 mmHg 61%
    09:00 +6°C° 0 mm 2 mps 754 mmHg 55%
    10:00 +7°C° 0 mm 2 mps 755 mmHg 48%
    11:00 +9°C° 0 mm 2 mps 755 mmHg 41%
    12:00 +11°C° 0 mm 1 mps 755 mmHg 37%
    13:00 +12°C° 0 mm 1 mps 754 mmHg 34%
    14:00 +13°C° 0 mm 1 mps 754 mmHg 30%
    15:00 +12°C° 0 mm 1 mps 754 mmHg 31%
    16:00 +12°C° 0 mm 1 mps 754 mmHg 32%
    17:00 +12°C° 0 mm 1 mps 754 mmHg 32%
    18:00 +11°C° 0 mm 1 mps 753 mmHg 37%
    19:00 +9°C° 0 mm 1 mps 753 mmHg 42%
    20:00 +8°C° 0 mm 1 mps 753 mmHg 46%
    21:00 +7°C° 0 mm 1 mps 753 mmHg 48%
    22:00 +6°C° 0 mm 2 mps 753 mmHg 49%
    23:00 +5°C° 0 mm 2 mps 753 mmHg 50%

    12 April, Sunday

    Time Temperature Precipitation Wind Pressure Humidity
    00:00 +5°C° 0 mm 2 mps 753 mmHg 52%
    01:00 +4°C° 0 mm 2 mps 753 mmHg 54%
    02:00 +3°C° 0 mm 3 mps 753 mmHg 56%
    03:00 +3°C° 0 mm 3 mps 753 mmHg 58%
    04:00 +3°C° 0 mm 3 mps 752 mmHg 59%
    05:00 +2°C° 0 mm 3 mps 752 mmHg 61%
    06:00 +4°C° 0 mm 3 mps 751 mmHg 60%
    07:00 +5°C° 0 mm 4 mps 751 mmHg 60%
    08:00 +6°C° 0 mm 4 mps 751 mmHg 59%
    09:00 +8°C° 0 mm 4 mps 751 mmHg 55%
    10:00 +11°C° 0 mm 4 mps 750 mmHg 51%
    11:00 +13°C° 0 mm 4 mps 750 mmHg 47%
    12:00 +13°C° 0 mm 5 mps 749 mmHg 45%
    13:00 +14°C° 0 mm 5 mps 749 mmHg 44%
    14:00 +15°C° 0 mm 5 mps 748 mmHg 42%
    15:00 +15°C° 0 mm 5 mps 747 mmHg 43%
    16:00 +15°C° 0 mm 5 mps 746 mmHg 44%
    17:00 +15°C° 0 mm 5 mps 745 mmHg 45%
    18:00 +14°C° 0 mm 4 mps 745 mmHg 49%
    19:00 +13°C° 0 mm 4 mps 744 mmHg 53%
    20:00 +11°C° 0 mm 3 mps 744 mmHg 57%
    21:00 +11°C° 0 mm 4 mps 743 mmHg 58%
    22:00 +11°C° 0 mm 4 mps 742 mmHg 58%
    23:00 +9°C° 0 mm 5 mps 742 mmHg 59%

    13 April, Monday

    Time Temperature Precipitation Wind Pressure Humidity
    00:00 +9°C° 0 mm 5 mps 741 mmHg 62%
    01:00 +9°C° 0 mm 5 mps 740 mmHg 64%
    02:00 +9°C° 0 mm 5 mps 740 mmHg 67%
    03:00 +9°C° 0.1 mm 5 mps 739 mmHg 73%
    04:00 +9°C° 0.1 mm 5 mps 739 mmHg 78%
    05:00 +8°C° 0.1 mm 5 mps 738 mmHg 84%
    06:00 +9°C° 0.1 mm 5 mps 737 mmHg 82%
    07:00 +10°C° 0.1 mm 5 mps 737 mmHg 81%
    08:00 +10°C° 0.1 mm 6 mps 737 mmHg 79%
    09:00 +10°C° 0.4 mm 6 mps 736 mmHg 80%
    10:00 +10°C° 0.4 mm 6 mps 735 mmHg 81%
    11:00 +9°C° 0.4 mm 6 mps 735 mmHg 83%
    12:00 +10°C° 0.4 mm 6 mps 735 mmHg 77%
    13:00 +10°C° 0.4 mm 7 mps 734 mmHg 71%
    14:00 +11°C° 0.4 mm 8 mps 734 mmHg 65%
    15:00 +7°C° 0.4 mm 8 mps 735 mmHg 74%
    16:00 +4°C° 0.4 mm 8 mps 735 mmHg 82%
    17:00 +1°C° 0.4 mm 8 mps 735 mmHg 91%
    18:00 0°C° 0.1 mm 8 mps 736 mmHg 83%
    19:00 0°C° 0.1 mm 8 mps 736 mmHg 75%
    20:00 -1°C° 0.1 mm 7 mps 737 mmHg 67%
    21:00 -2°C° 0 mm 7 mps 738 mmHg 67%
    22:00 -3°C° 0 mm 6 mps 738 mmHg 66%
    23:00 -4°C° 0 mm 6 mps 739 mmHg 66%
    Show more